Вернуться в каталог

FENGYUN 1C DEB

АктивенSSO
NORAD 31691·DEBRIS·🇨🇳 China

Запущен May 10, 1999 с Taiyuan Satellite Launch Center

Loading…

Ближайшие Пролёты (ближайшие 24 часа)

TLE

УстаревающийSource: Space-Track

Эпоха: Sep 8, 2026, 02:08 UTC

1 31691U 99025CCZ 26251.08928168  .00003273  00000-0  12997-2 0  9998
2 31691  98.8773 346.6876 0060143 177.7770 182.3690 14.28464707679547

Отслеживайте FENGYUN 1C DEB в реальном времени с AllMySat

Download on the App Store